Location: ????????
(55.0559°N, 39.1270°E)
Time: 00:21:25
(UTC+00:00)

Cosmos 1452 Rocket - Pass Details

Date: 15 November 2025
Orbit: 763 x 770 km, 74.1° (Epoch: 12 December)

Event Time Altitude Azimuth Distance (km) Brightness Sun altitude
Rises 03:10:28 0° 189° (S) 3,217 6.8 -14.8°
Reaches altitude 10° 03:12:52 10° 185° (S) 2,295 6.1 -14.4°
Maximum altitude 03:17:55 53° 109° (ESE) 934 4.4 -13.7°
Drops below altitude 10° 03:23:01 10° 34° (NE) 2,312 6.2 -13.0°
Sets 03:25:26 0° 30° (NNE) 3,243 7.0 -12.7°
